ZHONGXING-12

Last updated on Wed Mar 11 2026 00:02:53 GMT+0000 (Coordinated Universal Time)

1 39017U 12067A 26069.54796709 -.00000205 00000+0 00000+0 0 9992 2 39017 0.0195 132.4510 0003364 221.8361 98.6855 1.00272881 48510
UTC large
Height (km)
Speed (km/s)
/
Latitude / Longitude
Inclination (degrees)
Orbital Period (minutes)
Azimuth
Elevation
Range (km)
Doppler Factor

Next 0 passes for location: London (51.5072 / 0.1276)

Sorry there are no passes over London.